Location: Gad�tanya
(48.0500°N, 20.8500°E)
Time: 10:59:50
(UTC+00:00)

Cosmos 494 Rocket - Pass Details

Date: 05 July 2020
Orbit: 743 x 770 km, 74.1° (Epoch: 14 August)

Event Time Altitude Azimuth Distance (km) Brightness Sun altitude
Exits shadow 23:00:17 33° 155° (SSE) 1,249 4.6 -19.2°
Maximum altitude 23:02:05 47° 105° (ESE) 997 4.5 -19.1°
Drops below altitude 10° 23:07:01 10° 33° (NNE) 2,281 7.4 -19.1°
Sets 23:09:26 0° 28° (NNE) 3,206 8.5 -19.0°
